This is the latest recevied weather packets stored in our database for station/object NR0A-4. If no packets are shown the sender has not sent any weather packets the latest 10 day(s).
| Time | Temp. | Humidity | Pressure | Rain* | Wind** | Luminosity | Snow |
|---|---|---|---|---|---|---|---|
| 1777851904 | 22.78° C | 30% | 1008.2 hPa | 0 mm | - | 237 W/m² | - |
| 1777851604 | 22.78° C | 31% | 1008.3 hPa | 0 mm | - | 58 W/m² | - |
| 1777851304 | 22.78° C | 31% | 1008.3 hPa | 0 mm | - | 62 W/m² | - |
| 1777851004 | 22.78° C | 31% | 1008.4 hPa | 0 mm | - | 65 W/m² | - |
| 1777850704 | 22.78° C | 31% | 1008.4 hPa | 0 mm | - | 174 W/m² | - |
| 1777850404 | 22.78° C | 32% | 1008.5 hPa | 0 mm | - | 297 W/m² | - |
| 1777850104 | 22.78° C | 31% | 1008.5 hPa | 0 mm | - | 295 W/m² | - |
| 1777849804 | 23.33° C | 30% | 1008.5 hPa | 0 mm | - | 346 W/m² | - |
| 1777849504 | 23.33° C | 29% | 1008.5 hPa | 0 mm | - | 345 W/m² | - |
| 1777849203 | 23.33° C | 30% | 1008.5 hPa | 0 mm | - | 378 W/m² | - |
| 1777848904 | 23.33° C | 31% | 1008.5 hPa | 0 mm | - | 304 W/m² | - |
| 1777848604 | 23.33° C | 29% | 1008.6 hPa | 0 mm | - | 401 W/m² | - |
| 1777848304 | 23.89° C | 28% | 1008.7 hPa | 0 mm | - | 432 W/m² | - |
| 1777848005 | 23.89° C | 33% | 1008.7 hPa | 0 mm | - | 445 W/m² | - |
| 1777847704 | 23.33° C | 31% | 1008.8 hPa | 0 mm | - | 459 W/m² | - |
| 1777847405 | 23.33° C | 32% | 1008.8 hPa | 0 mm | - | 455 W/m² | - |
| 1777847104 | 23.33° C | 31% | 1008.8 hPa | 0 mm | - | 438 W/m² | - |
| 1777846804 | 23.33° C | 31% | 1008.8 hPa | 0 mm | - | 478 W/m² | - |
| 1777846504 | 23.33° C | 33% | 1008.9 hPa | 0 mm | - | 494 W/m² | - |
| 1777846205 | 23.33° C | 31% | 1008.9 hPa | 0 mm | - | 531 W/m² | - |
| 1777845904 | 23.89° C | 31% | 1009 hPa | 0 mm | - | 512 W/m² | - |
| 1777845604 | 23.33° C | 32% | 1009 hPa | 0 mm | - | 548 W/m² | - |
| 1777845304 | 23.33° C | 31% | 1009.1 hPa | 0 mm | - | 571 W/m² | - |
| 1777845005 | 23.33° C | 30% | 1009.1 hPa | 0 mm | - | 580 W/m² | - |
| 1777844704 | 23.33° C | 31% | 1009.2 hPa | 0 mm | - | 527 W/m² | - |
* Rain latest hour (hover to see other rain measurements)
** Current wind speed in m/s (hover to see current wind gust speed)